When you browse on this site, cookies collect data to enhance your experience and personalize the content and advertising you see.
Visit our Privacy Policy to learn more. By continuing to use the site, you agree to this use of cookies and data.
  • In Czech Republic
  • List of Countries
  • For 7 days
  • Water Temperature
  • Weather Map
  • Weather Widgets
  • user-avatar
    Login

    Hourly Weather Izh-Bobya

    Today, 31 May, Sunday

    Time Temperature Precipitation Wind Pressure Humidity
    00:00 +16°C° 0 mm 3 mps 751 mmHg 85%
    01:00 +14°C° 0 mm 4 mps 750 mmHg 91%
    02:00 +13°C° 0 mm 4 mps 750 mmHg 91%
    03:00 +13°C° 0 mm 3 mps 750 mmHg 91%
    04:00 +13°C° 0 mm 4 mps 749 mmHg 88%
    05:00 +13°C° 0 mm 4 mps 749 mmHg 87%
    06:00 +13°C° 0 mm 4 mps 748 mmHg 86%
    07:00 +14°C° 0 mm 5 mps 747 mmHg 84%
    08:00 +14°C° 0 mm 5 mps 747 mmHg 82%
    09:00 +15°C° 0 mm 6 mps 747 mmHg 80%
    10:00 +15°C° 0 mm 6 mps 747 mmHg 79%
    11:00 +16°C° 0 mm 6 mps 747 mmHg 76%
    12:00 +17°C° 0 mm 6 mps 746 mmHg 74%
    13:00 +19°C° 0 mm 6 mps 746 mmHg 71%
    14:00 +19°C° 0.2 mm 6 mps 746 mmHg 72%
    15:00 +19°C° 0.2 mm 6 mps 746 mmHg 74%
    16:00 +17°C° 0.2 mm 6 mps 745 mmHg 75%
    17:00 +16°C° 2.5 mm 6 mps 745 mmHg 81%
    18:00 +14°C° 2.5 mm 6 mps 744 mmHg 86%
    19:00 +11°C° 2.5 mm 7 mps 744 mmHg 92%
    20:00 +10°C° 1.1 mm 6 mps 744 mmHg 92%
    21:00 +10°C° 1.1 mm 5 mps 745 mmHg 93%
    22:00 +10°C° 1.1 mm 4 mps 745 mmHg 93%
    23:00 +10°C° 0.3 mm 4 mps 745 mmHg 94%

    Tomorrow, 1 June, Monday

    Time Temperature Precipitation Wind Pressure Humidity
    00:00 +10°C° 0.3 mm 4 mps 745 mmHg 94%
    01:00 +9°C° 0.3 mm 3 mps 745 mmHg 95%
    02:00 +9°C° 0 mm 3 mps 745 mmHg 95%
    03:00 +9°C° 0 mm 3 mps 745 mmHg 95%
    04:00 +9°C° 0 mm 2 mps 746 mmHg 95%
    05:00 +9°C° 0 mm 2 mps 746 mmHg 94%
    06:00 +9°C° 0 mm 2 mps 746 mmHg 93%
    07:00 +9°C° 0 mm 2 mps 746 mmHg 93%
    08:00 +9°C° 0 mm 2 mps 747 mmHg 91%
    09:00 +10°C° 0 mm 2 mps 748 mmHg 90%
    10:00 +10°C° 0 mm 2 mps 748 mmHg 89%
    11:00 +12°C° 0 mm 2 mps 749 mmHg 86%
    12:00 +11°C° 0 mm 3 mps 749 mmHg 83%
    13:00 +12°C° 0 mm 3 mps 749 mmHg 80%
    14:00 +12°C° 0 mm 3 mps 750 mmHg 78%
    15:00 +13°C° 0 mm 3 mps 751 mmHg 75%
    16:00 +13°C° 0 mm 4 mps 751 mmHg 72%
    17:00 +13°C° 0 mm 3 mps 751 mmHg 73%
    18:00 +12°C° 0 mm 3 mps 751 mmHg 74%
    19:00 +12°C° 0 mm 3 mps 752 mmHg 75%
    20:00 +11°C° 0 mm 3 mps 752 mmHg 80%
    21:00 +9°C° 0 mm 2 mps 753 mmHg 84%
    22:00 +8°C° 0 mm 2 mps 753 mmHg 88%
    23:00 +7°C° 0 mm 2 mps 753 mmHg 90%

    Day after tomorrow, 2 June, Tuesday

    Time Temperature Precipitation Wind Pressure Humidity
    00:00 +7°C° 0 mm 2 mps 753 mmHg 91%
    01:00 +6°C° 0 mm 2 mps 754 mmHg 92%
    02:00 +6°C° 0 mm 2 mps 754 mmHg 93%
    03:00 +5°C° 0 mm 2 mps 754 mmHg 94%
    04:00 +5°C° 0 mm 2 mps 755 mmHg 95%
    05:00 +6°C° 0 mm 2 mps 755 mmHg 90%
    06:00 +7°C° 0 mm 2 mps 755 mmHg 86%
    07:00 +8°C° 0 mm 3 mps 755 mmHg 81%
    08:00 +10°C° 0 mm 2 mps 755 mmHg 75%
    09:00 +12°C° 0 mm 2 mps 755 mmHg 69%
    10:00 +14°C° 0 mm 2 mps 756 mmHg 63%
    11:00 +15°C° 0 mm 2 mps 756 mmHg 60%
    12:00 +16°C° 0 mm 2 mps 756 mmHg 56%
    13:00 +17°C° 0 mm 3 mps 755 mmHg 53%
    14:00 +17°C° 0 mm 2 mps 755 mmHg 52%
    15:00 +17°C° 0 mm 2 mps 755 mmHg 51%
    16:00 +18°C° 0 mm 2 mps 755 mmHg 50%
    17:00 +17°C° 0 mm 2 mps 755 mmHg 56%
    18:00 +17°C° 0 mm 2 mps 755 mmHg 61%
    19:00 +16°C° 0 mm 1 mps 755 mmHg 67%
    20:00 +15°C° 0 mm 1 mps 755 mmHg 70%
    21:00 +13°C° 0 mm 1 mps 755 mmHg 73%
    22:00 +12°C° 0 mm 1 mps 756 mmHg 77%
    23:00 +10°C° 0 mm 2 mps 756 mmHg 79%

    3 June, Wednesday

    Time Temperature Precipitation Wind Pressure Humidity
    00:00 +9°C° 0 mm 2 mps 756 mmHg 82%
    01:00 +8°C° 0 mm 2 mps 755 mmHg 85%
    02:00 +8°C° 0 mm 2 mps 756 mmHg 87%
    03:00 +8°C° 0 mm 2 mps 756 mmHg 88%
    04:00 +7°C° 0 mm 2 mps 756 mmHg 90%
    05:00 +8°C° 0 mm 2 mps 756 mmHg 86%
    06:00 +9°C° 0 mm 3 mps 756 mmHg 83%
    07:00 +11°C° 0 mm 3 mps 756 mmHg 79%
    08:00 +12°C° 0 mm 3 mps 756 mmHg 73%
    09:00 +14°C° 0 mm 3 mps 756 mmHg 67%
    10:00 +15°C° 0 mm 4 mps 756 mmHg 61%
    11:00 +17°C° 0 mm 4 mps 755 mmHg 59%
    12:00 +18°C° 0 mm 3 mps 755 mmHg 57%
    13:00 +19°C° 0 mm 3 mps 755 mmHg 54%
    14:00 +19°C° 0 mm 4 mps 755 mmHg 54%
    15:00 +19°C° 0 mm 4 mps 755 mmHg 54%
    16:00 +19°C° 0 mm 4 mps 755 mmHg 55%
    17:00 +18°C° 0 mm 4 mps 755 mmHg 59%
    18:00 +17°C° 0 mm 4 mps 755 mmHg 63%
    19:00 +15°C° 0 mm 4 mps 754 mmHg 67%
    20:00 +14°C° 0 mm 3 mps 755 mmHg 67%
    21:00 +12°C° 0 mm 3 mps 755 mmHg 67%
    22:00 +11°C° 0 mm 3 mps 755 mmHg 68%
    23:00 +10°C° 0 mm 3 mps 755 mmHg 68%

    4 June, Thursday

    Time Temperature Precipitation Wind Pressure Humidity
    00:00 +9°C° 0 mm 3 mps 755 mmHg 69%
    01:00 +9°C° 0 mm 3 mps 755 mmHg 70%
    02:00 +8°C° 0 mm 3 mps 755 mmHg 72%
    03:00 +8°C° 0 mm 3 mps 755 mmHg 74%
    04:00 +7°C° 0 mm 3 mps 755 mmHg 76%
    05:00 +8°C° 0 mm 4 mps 755 mmHg 75%
    06:00 +10°C° 0 mm 4 mps 755 mmHg 74%
    07:00 +12°C° 0 mm 4 mps 755 mmHg 73%
    08:00 +13°C° 0 mm 5 mps 755 mmHg 68%
    09:00 +15°C° 0 mm 5 mps 755 mmHg 62%
    10:00 +17°C° 0 mm 6 mps 754 mmHg 57%
    11:00 +19°C° 0 mm 6 mps 754 mmHg 56%
    12:00 +20°C° 0 mm 6 mps 754 mmHg 56%
    13:00 +20°C° 0 mm 6 mps 754 mmHg 55%
    14:00 +21°C° 0 mm 6 mps 754 mmHg 56%
    15:00 +21°C° 0 mm 5 mps 754 mmHg 57%
    16:00 +21°C° 0 mm 5 mps 754 mmHg 58%
    17:00 +21°C° 0 mm 5 mps 754 mmHg 63%
    18:00 +20°C° 0 mm 4 mps 754 mmHg 68%
    19:00 +19°C° 0 mm 4 mps 754 mmHg 73%
    20:00 +18°C° 0 mm 3 mps 754 mmHg 79%
    21:00 +16°C° 0 mm 3 mps 754 mmHg 84%
    22:00 +14°C° 0 mm 3 mps 754 mmHg 90%
    23:00 +13°C° 0 mm 3 mps 754 mmHg 91%

    5 June, Friday

    Time Temperature Precipitation Wind Pressure Humidity
    00:00 +12°C° 0 mm 3 mps 755 mmHg 93%
    01:00 +12°C° 0 mm 3 mps 755 mmHg 94%
    02:00 +12°C° 0 mm 3 mps 755 mmHg 92%
    03:00 +11°C° 0 mm 3 mps 755 mmHg 91%
    04:00 +11°C° 0 mm 4 mps 755 mmHg 89%
    05:00 +12°C° 0 mm 4 mps 755 mmHg 85%
    06:00 +13°C° 0 mm 5 mps 755 mmHg 81%
    07:00 +14°C° 0 mm 5 mps 755 mmHg 76%
    08:00 +15°C° 0 mm 5 mps 755 mmHg 75%
    09:00 +15°C° 0 mm 5 mps 756 mmHg 74%
    10:00 +16°C° 0 mm 5 mps 756 mmHg 73%
    11:00 +17°C° 0 mm 5 mps 756 mmHg 69%
    12:00 +20°C° 0 mm 5 mps 756 mmHg 66%
    13:00 +21°C° 0 mm 6 mps 756 mmHg 62%
    14:00 +21°C° 0 mm 6 mps 756 mmHg 62%
    15:00 +22°C° 0 mm 6 mps 756 mmHg 62%
    16:00 +22°C° 0 mm 5 mps 756 mmHg 62%
    17:00 +21°C° 0 mm 5 mps 756 mmHg 66%
    18:00 +21°C° 0 mm 4 mps 756 mmHg 70%
    19:00 +20°C° 0 mm 4 mps 756 mmHg 74%
    20:00 +18°C° 0 mm 4 mps 756 mmHg 77%
    21:00 +17°C° 0 mm 3 mps 756 mmHg 79%
    22:00 +16°C° 0 mm 3 mps 756 mmHg 82%
    23:00 +14°C° 0 mm 3 mps 756 mmHg 82%
    Show more